Preview of NWS' New Version of Forecast
This preview is not operational and should not be used for support decisions.
Latest weather observations around

Missoula, Missoula International Airport (KMSO)

Using English Units (Switch to International System of Units)
Date/ Time (MDT) Wind (mph) Vis. (mi) Weather Sky Cond. Temp (°F) Rel. Humidity Wind Chill (°F) Heat Index (°F) Pressure Precip. (in)
Air Dwpt 6 hour Altimeter (inHg) Sea level (inHg) 1 hr 3 hr 6 hr
Max Min
Jun 24 09:53 WSW 3 10 Cloudy BKN060 OVC075 57 46     67%     29.96 29.93      
Jun 24 08:53 Calm 10 Cloudy SCT065 OVC075 58 42     55%     29.96 29.93      
Jun 24 07:53 Calm 10 Cloudy BKN060 OVC100 54 42     64%     29.96 29.93      
Jun 24 06:53 Calm 10 Cloudy SCT065 OVC090 50 43     77%     29.95 29.93      
Jun 24 05:53 Calm 10 Cloudy OVC085 50 42     74%     29.94 29.92      
Jun 24 04:53 Calm 10 Cloudy OVC080 50 41     71%     29.95 29.92      
Jun 24 03:53 WSW 3 10 Cloudy OVC110 49 41     74% 48   29.95 29.92      
Jun 24 02:53 NNW 3 10 Mostly Clear FEW110 49 40     71% 48   29.94 29.92      
Jun 24 01:53 SSE 3 10 Cloudy SCT055 OVC095 52 42     69%     29.95 29.92      
Jun 24 00:53 Calm 10 Mostly Cloudy BKN055 BKN085 52 41     66%     29.96 29.94      
Jun 23 23:53 N 6 10 Mostly Cloudy BKN100 52 41     66%     29.96 29.95      
Jun 23 22:53 Calm 10 Partly Cloudy SCT100 56 41     57%     29.96 29.95      
Jun 23 21:53 NNW 7 10 Mostly Cloudy BKN095 58 40     51%     29.95 29.93      
Jun 23 20:53 WNW 10 10 Mostly Cloudy BKN070 BKN090 62 41     46%     29.94 29.92      
Jun 23 19:53   10 Cloudy OVC090 64 38     38%     29.94 29.91      
Jun 23 18:53 NNW 9 10 Cloudy FEW075 OVC090 66 36     33%     29.93 29.91      
Jun 23 17:53   10 Partly Cloudy FEW075 SCT090 69 35     29%     29.93 29.91      
Jun 23 16:53 W 11 10 Mostly Clear FEW090 70 37     30%     29.95 29.92      
Jun 23 15:53 WNW 15 10 Mostly Cloudy SCT070 BKN085 70 38     31%     29.95 29.93      
Jun 23 14:53 NW 13 10 Mostly Cloudy BKN075 68 40     36%     29.96 29.94      
Jun 23 13:53 NNW 10 10 Mostly Cloudy BKN075 66 44     45%     29.97 29.95      
Jun 23 12:53 Calm 10 Cloudy SCT060 OVC110 61 47     60%     29.99 29.98      
Jun 23 11:53 Calm 10 Cloudy BKN060 OVC080 56 48     75%     30 29.99     0
Jun 23 10:53 Calm 10 Cloudy BKN070 OVC090 53 48     83%     30 30 0    
Jun 23 10:36 WNW 5 8 Light Rain FEW009 BKN070 OVC085 53 47     80%     30   0    
Jun 23 09:53 WNW 8 10 Cloudy SCT044 BKN060 OVC095 54 47     77%     30 30 0    
Jun 23 08:53 Calm 10 Partly Cloudy SCT080 53 46     77%     30 29.98      
Jun 23 07:53 Calm 10 Cloudy OVC095 51 44     77%     30 29.99      
Jun 23 07:05 Calm 10 Mostly Clear FEW110 45 42     90%     30.01        
Jun 23 06:53 Calm 2.5 Fog/Mist SCT110 45 42     90%     30.01 30      
Jun 23 05:53 Calm 10 Mostly Clear FEW060 FEW080 46 43     89%     30.01 30.01      
Jun 23 04:53 Calm 10 Partly Cloudy FEW060 SCT075 48 44     86%     30.01 30      
Jun 23 03:53 Calm 10 Clear   49 44     83%     30.02 30.01      
Jun 23 02:53 Calm 10 Cloudy BKN060 OVC075 50 44     80%     30.03 30.02      
Jun 23 01:53 Calm 10 Clear CLR 49 44     83%     30.03 30.03      
Jun 23 00:53 Calm 10 Clear CLR 51 45     79%     30.04 30.03      
Jun 22 23:53 Calm 10 Clear CLR 51 44     77%     30.06 30.05      
Jun 22 22:53 WSW 3 10 Clear CLR 50 44     80%     30.06 30.06      
Jun 22 21:53 Calm 10 Mostly Clear FEW100 52 46     80%     30.07 30.06      
Jun 22 20:53 Calm 10 Mostly Clear FEW110 60 48     64%     30.07 30.06      
Jun 22 19:53 ENE 6 10 Cloudy OVC110 62 44     52%     30.07 30.06      
Jun 22 18:53 NE 6 10 Cloudy FEW060 OVC100 63 44     50%     30.08 30.07      
Jun 22 17:53 3 10 Cloudy FEW050 BKN065 OVC100 62 44     52%     30.09 30.08      
Jun 22 16:53 E 3 10 Cloudy FEW048 BKN060 OVC080 62 44     52%     30.1 30.09      
Jun 22 15:53 Calm 10 Cloudy OVC048 61 43     52%     30.11 30.1      
Jun 22 14:53 NE 5 10 Cloudy OVC041 60 43     53%     30.13 30.13      
Jun 22 13:53 N 5 10 Cloudy OVC039 59 43     55%     30.14 30.14      
Jun 22 12:53 Calm 10 Cloudy OVC042 59 42     53%     30.14 30.14      
Jun 22 11:53 ESE 5 10 Cloudy OVC046 57 42     57%     30.15 30.15      
Jun 22 10:53 3 10 Cloudy OVC045 56 42     60%     30.16 30.15      
Jun 22 09:53 SSE 6 10 Cloudy OVC039 54 43     66%     30.15 30.15      
Jun 22 08:53 SSE 7 10 Cloudy OVC036 52 43     71%     30.15 30.14      
Jun 22 07:53 SSE 5 10 Cloudy OVC040 52 43     71%     30.14 30.13      
Jun 22 06:53 SE 5 10 Cloudy FEW038 OVC055 51 44     77%     30.12 30.12      
Jun 22 05:53 SSW 3 10 Cloudy SCT040 OVC050 50 45     83%     30.11 30.11     0
Jun 22 04:53 Calm 10 Cloudy OVC040 50 44     80%     30.1 30.1      
Jun 22 03:53 Calm 10 Cloudy SCT042 OVC050 51 43     74%     30.1 30.09      
Jun 22 02:53 Calm 10 Cloudy OVC055 50 43     77%     30.1 30.09   0  
Jun 22 01:53 WSW 6 10 Cloudy OVC055 49 43     80% 46   30.09 30.09      
Jun 22 00:53 Calm 10 Cloudy OVC070 51 43     74%     30.09 30.1 0    
Jun 21 23:53 NNW 3 10 Mostly Cloudy SCT046 BKN120 49 43     80% 48   30.09 30.09     0
Jun 21 22:53 Calm 10 Mostly Clear FEW049 FEW060 51 42     71%     30.09 30.09      
Jun 21 21:53 N 5 10 Mostly Cloudy BKN045 BKN055 53 43     69%     30.09 30.09 0    
Jun 21 20:53 N 5 10 Light Rain OVC060 55 45     69%     30.07 30.07 0 0  
Jun 21 19:53 W 10 10 Mostly Cloudy FEW050 BKN070 57 41     55%     30.06 30.06 0    
Jun 21 18:53 NNW 10 10 Cloudy BKN060 BKN070 OVC110 57 40     53%     30.06 30.06 0    
Jun 21 17:53 NNE 14 10 Cloudy SCT047 OVC065 57 39     51%     30.04 30.04     0
Jun 21 16:53 N 9 10 Partly Cloudy FEW060 SCT075 58 39     49%     30.03 30.03      
Jun 21 15:53   10 Mostly Clear FEW044 FEW090 60 39     46%     30.04 30.03 0    
Jun 21 14:53 NNW 11 10 Light Rain FEW040 BKN050 OVC070 56 40     55%     30.04 30.04 0 0  
Jun 21 13:53 Calm 10 Cloudy SCT050 BKN065 OVC085 55 39     55%     30.03 30.04 0    
Jun 21 12:53   6 Light Rain BKN043 51 42     71%     30.03 30.04 0    
Jun 21 11:53 NW 8 10 Mostly Cloudy FEW028 BKN060 57 37     47%     30 29.99 0   0
Jun 21 10:53 5 10 Partly Cloudy FEW028 SCT060 58 38     47%     30 29.99 0    
May 14 10:53 S 3 10 Clear CLR 58 42     55%     30.13 30.11      
May 14 06:53 SSE 3 10 Clear CLR 42 37     82% 40   30.14 30.14      
May 12 22:53 Calm 10 Clear CLR 52 38     59%     29.97 29.97      
May 12 18:53 N 9 10 Clear CLR 67 38     34%     29.93 29.93      
May 11 17:53   10 Mostly Clear FEW060 55 44     66%     30.05 30.06     0
Jun 11 20:53   10 Clear   64 35     34%     29.82 29.8      
Jun 11 14:53 W 5 10 Clear CLR 65 28     25%     29.89 29.9      
Jun 10 12:13 5 6 Light Rain FEW035 BKN043 OVC055 52 41     66%     29.75   0    
Jun 10 08:53 S 7 10 Clear CLR 51 41     68%     29.75 29.74      
Jun 09 13:53 7 10 Light Rain FEW026 SCT037 BKN047 57 48     72%     29.8 29.79 0    
Jun 08 21:53   10 Mostly Clear FEW120 64 51     63%     29.75 29.7      
Jun 07 23:53 E 10 10 Clear CLR 70 54     57%     29.84 29.77      
Jun 07 09:53 Calm 10 Clear CLR 66 52     61%     29.99 29.94      
Jun 06 01:53 N 5 10 Clear CLR 47 41     80% 45   30.17 30.15